Regional Weather Roundup
Issued by NWS

Home | Current Version | Previous Version | Text Only | Print | Product List | Glossary On
Versions: 1 2 3 4 5 6 7 8 9 10 11 12 13 14 15 16 17 18 19 20 21 22 23 24 25 26 27 28 29 30 31 32 33 34 35 36 37 38 39 40 41 42 43 44 45 46 47 48 49 50
000
ASUS45 KTFX 200119
RWRMT
MONTANA HOURLY WEATHER ROUNDUP
NATIONAL WEATHER SERVICE GREAT FALLS MT
719 PM MDT SAT APR 19 2014

NOTE: "FAIR" INDICATES FEW OR NO CLOUDS BELOW 12000 FEET WITH NO
SIGNIFICANT WEATHER AND/OR OBSTRUCTIONS TO VISIBILITY.

* THESE STATIONS ARE NOT UNDER NWS QUALITY CONTROL. THEY DO NOT
   REPORT WEATHER SUCH AS PRECIPITATION OR FOG.

MTZ001>007-043-200200-
WEST OF THE DIVIDE
CITY           SKY/WX    TMP DP  RH WIND       PRES   REMARKS
KALISPELL      CLOUDY    61  25  25 S7        29.80F
MISSOULA       MOCLDY    66  21  18 NW7       29.80S
BUTTE          PTCLDY    61  16  17 SW7       29.88S
MULLAN PASS    CLOUDY    43  21  42 VRB7      29.90S
* ESSEX        N/A       47  26  44 W2         N/A
* LINCOLN      N/A       62  14  15 SW7G13     N/A
* LOOKOUT PASS N/A       51  22  32 E3         N/A
* PLAINS APT   PTCLDY    66  23  19 SW14      29.84R
* POLSON       N/A       61  24  24 S2         N/A
* SEELEY LAKE  N/A       63  15  15 SW6G13     N/A
* THOMP F APT  MOCLDY    59  17  19 S11G22     N/A
* YAAK HILL    N/A       62  23  22 N1         N/A
$$

MTZ008-052>055-200200-
SOUTHWEST MONTANA
CITY           SKY/WX    TMP DP  RH WIND       PRES   REMARKS
BOZEMAN        PTCLDY    64  18  17 S14       29.85F
DILLON         CLEAR     64  12  13 S16       29.85F
W YELLOWSTONE  N/A       51  18  27 SW5G11     N/A
* THREE FORKS  PTCLDY    68  21  17 S15G23     N/A
* BOULDER HILL N/A       59  15  18 SW13G19    N/A
* MONIDA PASS  N/A       55  13  19 S18G28     N/A
* RAYNOLDS PAS N/A       48  30  50 SE12       N/A
* WHITEHALL    N/A       70  17  13 SW14G26    N/A
* WISE RIVER   N/A       61  16  17 W15G21     N/A
$$

MTZ009>010-012-014-046-048-049-054-200200-
EAST SLOPES AND CENTRAL MONTANA
CITY           SKY/WX    TMP DP  RH WIND       PRES   REMARKS
CUT BANK       MOCLDY    59  16  18 W18       29.80R
GREAT FALLS    PTCLDY    61  12  14 SW8       29.80S
HELENA         PTCLDY    66  16  14 N6        29.81S
MALMSTROM AFB  PTCLDY    64   7  10 W7        29.79S
* CONRAD       MOCLDY    63  16  16 N/A        N/A
* DEARBORN     N/A       66  14  13 SW8G17     N/A
* EAST GLACIER N/A       51  18  27 W12G23     N/A
* MONARCH      N/A       56   4  12 S9G16      N/A
* PENDROY      N/A       59  10  14 SW8        N/A
* ROGERS PASS  N/A       51  23  33 E2G12      N/A
* SAINT MARY   N/A       53  18  25 SW6G15     N/A
* SWEET GRASS  N/A       55  11  17 W8         N/A
* WHITE SULPH  N/A       61  11  14 SW11G21    N/A
$$

MTZ011-013-016-021-035-040-045-047-050-051-200200-
NORTH CENTRAL MONTANA
CITY           SKY/WX    TMP DP  RH WIND       PRES   REMARKS
HAVRE          CLOUDY    61  12  14 SW5       29.80F
LEWISTOWN      PTCLDY    61  18  19 W8        29.85F
* CHINOOK      CLOUDY    61  16  17 CALM      29.81F
* FORT BENTON  PTCLDY    64  14  14 SW9       29.80S
* MALTA APT    PTCLDY    63  18  17 CALM      29.82S
* CHESTER      N/A       61  10  13 W7G13      N/A
* DENTON       N/A       64  16  15 W2         N/A
* GEYSER       N/A       61  10  13 SW12       N/A
* JUDITH GAP   N/A       58  12  16 W4         N/A
* LOMA         N/A       65  11  12 SW15       N/A
$$

MTZ017>020-022>027-061-062-200200-
NORTHEAST MONTANA
CITY           SKY/WX    TMP DP  RH WIND       PRES   REMARKS
GLASGOW        PTCLDY    57  28  33 SE9       29.86S
GLENDIVE       CLEAR     59  21  23 SW8       29.92F
JORDAN         CLEAR     63  14  15 SW5       29.86F
SIDNEY         CLEAR     57  30  36 NW7       29.92F
WOLF POINT     CLEAR     61  27  27 CALM      29.88F
* BEAVER HILL  N/A       60  22  23 SW10       N/A
* CIRCLE       N/A       62  27  26 SW5        N/A
* LINDSAY DVD  N/A       59  18  20 SW11       N/A
* NAVAJO       N/A       54  31  42 W10        N/A
* SACO         N/A       61  26  26 SW6        N/A
* SCOBEY APT   CLEAR     55  27  34 SW8       29.88S
$$

MTZ028>042-056>058-200200-
SOUTHCENTRAL AND SOUTHEAST MONTANA
CITY           SKY/WX    TMP DP  RH WIND       PRES   REMARKS
BAKER          CLEAR     59  21  23 W6        29.95S
BILLINGS       PTCLDY    63  25  24 SE13      29.88S
LIVINGSTON     MOCLDY    64  19  18 SW23G29   29.86S
MILES CITY     CLEAR     63  18  17 SW7       29.91S
* EKALAKA APT  CLEAR     59  19  21 CALM      29.94F
* LAUREL APT   CLEAR     66  27  23 E7         N/A
* ROUNDUP APT  PTCLDY    63  19  18 N/A        N/A
* HYSHAM       N/A       63  16  16 S4         N/A
* LAME DEER    N/A       62  18  18 SE1        N/A
* REED POINT   N/A       61  27  27 SE2        N/A
* ROSCOE HILL  N/A       59   3  10 SW6G14     N/A
$$

REGIONAL REPORTS...DAKOTAS
CITY           SKY/WX    TMP DP  RH WIND       PRES   REMARKS
WILLISTON      CLEAR     57  34  42 SW6       29.91F
DICKINSON      CLEAR     57  28  33 W5        29.93S
CROSBY         CLEAR     48  37  66 NE7       29.92F
TIOGA          FAIR      54  32  43 W8        29.95S
WATFORD CITY   CLEAR     55  32  42 NW5       29.91S
BISMARCK       CLEAR     61  34  36 NW7       29.96S
GRAND FORKS    CLEAR     52  39  61 W13       29.95R
FARGO          CLEAR     63  32  31 W9        29.92R
BUFFALO SD     CLEAR     63  18  17 CALM      29.90F
RAPID CITY     MOCLDY    61  34  36 SE12      29.98S
$$

REGIONAL REPORTS...WYOMING/IDAHO/WASHINGTON
CITY           SKY/WX    TMP DP  RH WIND       PRES   REMARKS
GILLETTE       PTCLDY    57  28  33 S13       29.95S
SHERIDAN       PTCLDY    63  30  29 E6        29.92S
CODY           CLEAR     63  18  17 W5        29.92S
YELLOWSTONE LA PTCLDY    46  14  27 VRB3      30.08S
SALMON         PTCLDY    66  14  13 W7        29.82R
MULLAN PASS    CLOUDY    43  21  42 VRB7      29.90S
SAND POINT     CLOUDY    57  32  39 CALM      29.81S
SPOKANE        LGT RAIN  54  28  37 SW22G39   29.89R
$$

REGIONAL REPORTS...ALBERTA
CITY           SKY/WX    TMP DP  RH WIND       PRES   REMARKS
CALGARY        CLOUDY    52  25  35 SE14G20   29.68F
LETHBRIDGE     CLOUDY    54  25  33 S7        29.76S
MEDICINE HAT   CLOUDY    59  23  25 CALM      29.76F
EDMONTON       MOCLDY    50  30  46 S7        29.71S
WATERTON GATE  N/A       54  19  25 SW12G18    N/A
CARDSTON       N/A       57  21  25 SW6        N/A
MILK RIVER     N/A       54  18  24 W6         N/A
$$

REGIONAL REPORTS...SASKATCHEWAN
CITY           SKY/WX    TMP DP  RH WIND       PRES   REMARKS
SWIFT CURRENT  CLEAR     46  32  58 N5        29.84S
REGINA         MOCLDY    39  34  82 NW6       29.92S WCI  35
VAL MARIE      N/A       57  21  25 W10        N/A
ASSINIBOIA     N/A       46  34  63 NE6        N/A
CORONACH       N/A       52  34  50 NE6        N/A

$$




USA.gov is the U.S. government's official web portal to all federal, state and local government web resources and services.